This is the latest recevied weather packets stored in our database for station/object CT2IRJ-11. If no packets are shown the sender has not sent any weather packets the latest 10 day(s).
| Time | Temp. | Humidity | Pressure | Rain* | Wind** | Luminosity | Snow |
|---|---|---|---|---|---|---|---|
| 1777224509 | 29.44° C | 51% | 1014.6 hPa | 0 mm | - | 103 W/m² | - |
| 1777224209 | 29.44° C | 51% | 1014.2 hPa | 0 mm | - | 199 W/m² | - |
| 1777223909 | 30° C | 49% | 1014.2 hPa | 0 mm | - | 222 W/m² | - |
| 1777223610 | 29.44° C | 50% | 1014.2 hPa | 0 mm | - | 243 W/m² | - |
| 1777223309 | 28.89° C | 51% | 1013.9 hPa | 0 mm | - | 251 W/m² | - |
| 1777223010 | 28.89° C | 52% | 1013.9 hPa | 0 mm | - | 160 W/m² | - |
| 1777222710 | 28.89° C | 52% | 1013.9 hPa | 0 mm | - | 247 W/m² | - |
| 1777222409 | 28.89° C | 54% | 1013.9 hPa | 0 mm | - | 240 W/m² | - |
| 1777222110 | 29.44° C | 52% | 1013.9 hPa | 0 mm | - | 113 W/m² | - |
| 1777221810 | 30° C | 50% | 1014.2 hPa | 0 mm | - | 282 W/m² | - |
| 1777221510 | 30° C | 49% | 1013.9 hPa | 0 mm | - | 290 W/m² | - |
| 1777221210 | 29.44° C | 51% | 1013.9 hPa | 0 mm | - | 289 W/m² | - |
| 1777220911 | 30° C | 52% | 1013.9 hPa | 0 mm | - | 321 W/m² | - |
| 1777220610 | 28.33° C | 56% | 1013.9 hPa | 0 mm | - | 323 W/m² | - |
| 1777220310 | 28.33° C | 55% | 1013.9 hPa | 0 mm | - | 146 W/m² | - |
| 1777220009 | 28.89° C | 54% | 1013.9 hPa | 0 mm | - | 285 W/m² | - |
| 1777219711 | 29.44° C | 52% | 1014.2 hPa | 0 mm | - | 224 W/m² | - |
| 1777219410 | 30.56° C | 47% | 1013.9 hPa | 0 mm | - | 147 W/m² | - |
| 1777219109 | 29.44° C | 38% | 1013.9 hPa | 0 mm | - | 127 W/m² | - |
| 1777218810 | 30.56° C | 36% | 1013.9 hPa | 0 mm | - | 144 W/m² | - |
| 1777218509 | 30° C | 37% | 1013.9 hPa | 0 mm | - | 436 W/m² | - |
| 1777218209 | 30° C | 38% | 1013.9 hPa | 0 mm | - | 483 W/m² | - |
| 1777217910 | 30° C | 37% | 1014.2 hPa | 0 mm | - | 512 W/m² | - |
| 1777217609 | 30° C | 37% | 1014.2 hPa | 0 mm | - | 523 W/m² | - |
| 1777217310 | 30.56° C | 38% | 1013.9 hPa | 0 mm | - | 492 W/m² | - |
* Rain latest hour (hover to see other rain measurements)
** Current wind speed in m/s (hover to see current wind gust speed)